Location: Sungai Dangang
(2.7500°N, 113.8333°E)
Time: 22:34:15
(UTC+00:00)

H-II Stage 2 - Pass Details

Date: 16 May 2021
Orbit: 288 x 28108 km, 28.8° (Epoch: 15 June)

Event Time Altitude Azimuth Distance (km) Brightness Sun altitude
Rises 12:58:25 0° 298° (WNW) 7,698 8.6 -35.6°
Reaches altitude 10° 13:06:13 10° 296° (WNW) 4,209 7.0 -37.3°
Enters shadow 13:11:43 30° 286° (WNW) 1,507 4.4 -38.6°
